Theta_e
288 287 287 287 287 287 286 286 286 286 286 285 285 285 284 283 283 283 283 283 283 283 284 284 284 285 285 285 285 284 282 280 278 275 275 275 275 274 274 274 274 274 275 276 277 277 277 279 281 284 287 290 291 292 293 294 293 293 293 294 294 295 297 298 298 299 300 301 303 304 310 319 323 322 324 325 325 326 326 326 327 328 328 327 326
288 287 288 287 287 287 286 286 286 285 285 285 284 284 283 283 283 283 283 283 283 283 284 284 284 284 285 284 284 283 280 277 275 273 273 273 272 272 273 273 273 274 275 276 276 277 277 279 281 284 287 289 291 292 293 293 293 292 293 293 293 295 297 298 298 299 300 301 302 304 308 317 323 322 324 325 325 326 326 326 326 327 327 326 325
287 287 287 287 287 286 286 286 285 285 285 284 284 283 283 282 282 282 282 282 282 283 283 284 284 284 284 283 282 281 278 275 273 272 271 271 271 271 272 273 273 274 275 276 277 277 277 279 281 285 287 289 291 292 293 293 292 292 292 293 293 295 297 298 299 299 300 301 302 303 307 316 322 322 323 325 325 326 325 324 326 326 326 324 323
288 287 287 287 286 286 286 285 285 285 284 284 283 283 282 282 282 282 282 282 282 283 283 283 283 283 283 282 280 278 276 274 273 272 271 271 271 271 271 272 273 274 274 275 277 278 278 279 281 285 288 289 291 292 292 292 292 292 292 293 293 295 297 298 298 299 300 301 303 303 307 316 322 322 323 324 324 325 324 323 324 325 324 323 322
287 287 287 287 286 286 285 285 285 284 284 283 283 283 282 282 281 281 281 282 282 283 283 283 283 282 281 280 277 275 274 274 273 273 271 271 271 271 271 272 272 273 273 275 276 277 278 279 280 284 288 289 290 291 292 292 292 292 292 293 293 295 297 298 298 299 300 301 303 304 308 316 321 321 323 323 322 323 323 322 323 323 321 321 321
287 287 287 286 286 285 285 285 284 284 284 283 283 283 282 281 281 281 281 282 282 283 283 283 282 281 280 278 275 274 274 274 274 273 273 272 272 272 272 272 272 272 273 274 275 276 277 278 280 284 287 288 289 291 292 292 292 292 293 293 293 295 297 298 299 300 301 302 303 305 310 317 320 320 321 322 322 321 320 320 321 321 320 319 320
287 287 286 286 286 285 285 285 284 284 284 283 283 282 282 281 280 281 281 281 282 283 283 283 282 281 278 276 275 275 274 274 275 274 274 273 273 273 273 272 272 272 272 273 274 275 276 277 280 284 286 287 288 290 291 292 292 292 293 293 293 294 296 298 298 300 301 303 304 306 312 317 319 319 319 320 322 321 319 319 318 319 320 319 319
287 287 286 286 285 285 285 285 284 284 283 283 282 282 282 281 280 280 281 282 282 282 282 282 281 280 278 276 275 275 275 275 275 275 275 275 274 273 273 273 273 272 272 273 275 276 277 278 280 284 286 287 288 289 290 291 292 293 293 293 293 294 296 297 298 299 302 303 304 307 314 317 317 318 318 318 319 319 319 319 318 318 319 319 318
287 286 286 286 285 285 285 284 284 283 283 282 282 282 281 280 280 280 281 282 282 282 282 281 280 280 278 276 275 275 276 276 276 276 276 275 274 273 273 273 274 274 273 274 275 276 278 279 281 283 286 287 288 289 290 291 291 292 293 293 293 294 295 296 297 299 302 303 304 308 314 316 316 316 316 316 318 318 318 319 318 318 318 318 318
287 286 286 285 285 285 284 284 283 283 282 282 282 281 281 280 279 280 281 282 282 282 281 281 279 278 276 274 273 274 275 276 277 277 276 274 274 274 274 274 274 275 274 275 276 277 278 279 281 283 285 286 288 289 290 291 291 292 292 293 293 293 295 296 297 299 301 302 304 309 314 316 316 316 315 316 317 318 318 318 317 317 317 317 318
286 286 285 285 285 284 284 284 283 282 282 282 281 281 280 279 279 280 281 282 282 281 281 280 278 276 274 273 272 272 274 275 276 276 275 274 274 275 275 275 275 276 275 275 275 276 278 279 281 283 284 285 287 288 289 290 290 291 292 292 292 293 294 295 297 299 301 301 305 311 314 315 316 316 316 316 316 317 317 316 316 316 316 316 316
286 286 285 285 285 284 284 283 283 282 282 281 280 280 279 279 279 281 281 282 281 281 279 278 276 275 274 273 273 273 274 275 275 275 274 274 275 275 276 276 277 277 276 276 276 276 277 278 280 282 283 284 285 287 289 289 290 291 292 292 292 293 294 295 297 299 301 301 305 311 314 314 316 316 315 314 315 316 317 317 316 315 315 315 315
286 285 285 285 284 284 284 283 283 282 281 280 279 279 279 279 280 281 281 281 280 280 278 277 276 274 273 273 273 273 275 276 276 275 275 275 275 276 277 277 277 277 277 276 276 276 277 278 279 280 283 284 285 286 288 289 290 291 292 292 292 293 293 295 297 299 301 301 303 309 314 315 315 315 314 313 314 315 316 316 316 315 314 313 313
286 285 285 284 284 284 284 283 282 281 280 279 278 278 278 279 280 281 281 280 279 279 278 277 275 274 272 272 272 273 275 276 276 276 275 275 276 277 278 278 278 278 278 277 277 277 277 278 279 280 282 284 284 285 286 288 289 290 291 292 292 293 294 295 297 299 301 301 301 306 313 315 315 315 314 314 314 314 315 316 316 315 314 313 312
285 285 284 284 284 284 284 283 282 281 279 278 278 278 278 279 280 280 280 279 278 277 276 276 275 274 272 272 271 272 275 276 276 276 276 276 277 278 279 279 279 278 278 278 277 277 277 278 279 280 281 283 284 284 285 286 288 289 290 292 292 293 294 295 298 300 301 302 301 303 310 315 315 315 315 315 315 315 315 315 315 314 314 313 312
285 285 285 285 284 284 283 282 281 280 278 278 277 278 278 279 279 279 279 278 277 277 275 275 274 273 272 272 271 272 275 276 276 276 276 276 278 279 279 280 280 279 278 278 278 278 278 278 280 281 282 283 284 285 284 285 287 288 289 291 292 293 294 296 299 300 302 302 301 302 308 314 315 315 316 315 315 315 314 314 314 314 313 312 313
285 285 285 284 284 283 282 281 280 279 277 277 277 278 278 278 279 278 278 278 277 277 276 275 274 272 272 272 271 272 275 276 276 276 276 276 278 279 279 280 280 280 279 278 278 278 278 278 279 280 282 283 284 285 285 285 286 287 288 290 291 292 293 296 299 301 302 303 302 303 307 313 315 315 316 316 315 315 315 314 314 314 313 312 312
285 285 284 284 283 282 281 280 279 278 277 277 277 277 278 278 278 278 277 277 277 277 275 275 273 272 271 272 271 271 273 275 275 275 275 276 277 278 279 280 281 280 280 279 279 279 279 279 280 280 282 283 283 284 285 286 286 287 288 289 290 292 293 296 299 301 302 303 303 303 307 312 314 314 315 315 315 315 315 314 314 314 313 312 312
285 285 284 283 282 281 280 279 278 277 276 276 277 277 277 278 278 277 277 277 277 276 275 274 273 272 272 272 271 271 272 274 274 274 274 275 277 278 278 280 281 281 281 280 279 279 280 281 281 282 283 283 283 284 285 285 286 287 288 289 290 291 293 295 298 300 301 303 304 304 307 312 314 314 314 314 314 315 315 314 314 314 313 312 312
285 284 283 283 282 281 279 278 277 276 276 276 277 276 277 277 278 277 277 277 276 276 275 273 272 272 272 271 271 271 272 272 273 273 274 275 277 278 278 279 280 281 281 281 280 280 280 281 282 283 284 284 284 285 285 285 286 287 288 289 289 291 292 294 297 299 300 303 305 305 308 312 314 314 313 313 313 314 314 314 314 313 313 312 312
284 283 283 282 281 279 278 277 277 276 276 276 276 276 276 277 277 277 277 277 276 276 275 273 272 273 272 270 270 271 271 272 272 273 273 275 276 277 278 278 279 280 281 282 282 281 281 281 282 283 284 284 285 285 286 286 286 287 288 289 289 290 291 293 296 298 300 302 305 306 307 311 313 313 313 313 312 312 313 312 313 313 313 312 312
284 283 282 281 280 279 278 277 276 276 276 276 276 276 276 276 277 277 276 276 276 275 274 273 272 272 272 270 270 271 271 271 271 272 273 274 275 277 278 278 279 280 281 282 282 283 283 283 282 283 283 284 285 285 286 287 287 288 289 289 290 290 291 293 296 298 299 301 305 306 307 310 312 311 312 312 313 313 312 312 312 313 313 313 313
283 282 281 280 279 278 277 276 276 276 276 276 276 276 276 276 277 277 276 276 275 274 273 272 271 271 271 270 270 271 271 270 270 271 272 273 275 276 278 279 279 280 280 281 282 283 284 284 284 284 284 284 285 285 286 287 288 289 289 290 290 290 291 292 295 298 299 301 304 306 307 308 310 310 311 312 312 313 313 313 313 313 313 313 313
282 281 281 279 278 277 276 276 275 275 276 275 275 275 275 276 276 277 276 275 275 274 272 271 270 269 270 270 270 270 270 270 270 271 272 273 274 275 277 279 280 281 281 281 282 283 284 285 285 285 285 285 285 286 286 287 289 290 290 290 290 290 290 292 295 297 298 300 304 306 307 308 309 310 312 313 313 313 314 314 313 313 313 312 312
282 281 280 279 277 277 276 275 275 275 275 275 275 275 275 275 276 277 276 275 274 273 271 269 269 269 269 269 270 270 270 269 270 271 272 273 274 274 275 277 280 281 281 283 284 284 284 286 287 287 286 286 286 287 287 287 288 289 290 290 290 290 290 293 296 297 298 300 303 306 307 309 310 311 312 313 313 313 314 313 312 311 311 311 311
281 280 279 278 277 276 275 275 275 275 274 275 275 275 275 275 275 276 276 274 273 272 270 269 269 268 269 269 270 270 270 269 269 270 272 272 273 274 275 277 279 280 282 284 285 285 286 286 287 288 287 287 286 287 287 287 288 288 288 289 289 290 291 293 296 298 299 300 303 305 308 310 310 310 311 311 311 311 312 312 311 310 311 311 310
280 279 278 277 276 275 274 274 274 274 274 274 275 275 274 274 274 275 275 275 273 271 270 270 269 268 269 269 269 270 269 269 269 271 271 272 272 273 275 277 279 281 283 285 286 286 287 287 288 288 288 288 288 288 288 288 288 289 289 289 289 290 292 295 297 298 299 301 303 305 308 309 309 308 309 310 310 311 311 312 311 310 310 310 310
280 279 277 276 276 274 274 273 273 273 273 274 274 275 275 274 274 274 274 274 273 270 270 270 270 269 269 269 269 269 269 269 270 271 271 271 272 273 274 276 278 280 282 284 286 287 287 288 288 289 289 288 288 289 289 289 289 289 290 290 290 291 293 296 298 299 299 301 303 304 306 307 308 308 308 309 310 310 310 311 311 310 310 309 309
279 278 277 276 275 274 273 273 272 272 272 273 273 274 274 274 274 273 273 273 273 271 270 270 269 269 269 269 269 269 269 269 270 270 271 271 272 272 274 276 277 279 282 284 286 287 288 289 289 289 289 289 289 289 289 290 290 290 290 290 291 292 294 296 298 299 299 301 302 303 304 306 308 308 308 308 309 309 310 310 310 310 310 309 309
278 277 276 276 274 273 272 272 272 272 272 272 272 273 274 274 274 274 273 273 273 272 272 271 270 269 269 269 269 269 268 269 269 270 270 271 271 273 274 276 277 279 282 286 288 288 289 290 291 290 290 290 290 290 290 290 290 290 291 291 292 293 295 297 299 299 300 301 302 303 305 307 308 308 308 308 308 308 309 309 309 309 309 309 308
278 277 276 275 274 272 272 272 271 271 271 272 272 272 273 273 274 274 274 273 273 273 273 273 273 271 270 269 269 269 269 268 269 269 269 270 272 273 275 276 277 279 282 286 288 289 288 289 291 291 291 290 290 290 290 290 290 290 291 292 292 294 296 298 299 299 300 300 302 304 306 307 307 307 308 308 308 308 308 308 308 309 308 308 308
277 276 275 274 273 272 271 271 271 271 271 271 271 272 272 272 273 274 274 274 274 273 273 273 274 273 273 271 269 270 270 268 268 268 269 270 272 273 274 275 276 278 282 286 287 286 286 287 289 291 291 291 292 292 291 291 291 291 292 292 293 295 297 299 300 300 300 300 302 303 305 306 307 307 307 307 307 307 306 306 307 308 308 308 307
276 275 275 274 272 271 271 271 271 270 271 271 271 271 271 272 272 273 274 274 274 274 273 273 273 273 274 272 270 270 271 269 268 268 269 270 271 272 273 274 275 277 281 283 283 283 284 286 287 289 289 290 291 292 293 293 292 292 293 293 294 295 297 299 300 299 299 300 301 303 304 305 306 306 306 306 306 306 306 306 306 307 307 306 306
276 275 274 273 272 271 271 271 270 270 270 271 271 271 271 271 271 272 272 273 274 274 274 274 273 273 273 273 272 271 272 271 269 269 269 270 271 272 275 276 277 278 279 279 279 279 280 282 284 286 288 289 290 291 292 293 293 294 294 294 295 296 298 299 299 299 299 300 301 302 303 304 304 305 305 305 306 306 306 306 306 306 306 306 305
275 274 273 272 271 271 271 270 270 270 270 270 270 270 270 271 271 271 271 271 272 272 273 273 273 273 273 273 273 271 272 272 271 270 270 270 271 273 276 277 277 277 276 276 276 276 277 278 280 282 285 287 289 290 291 292 293 294 295 296 296 297 298 299 299 299 299 300 301 302 302 303 304 305 305 305 305 305 305 306 306 305 305 306 305
275 274 273 271 271 270 270 270 269 269 270 270 270 270 270 270 270 271 271 271 271 271 271 272 273 273 273 273 273 272 272 272 272 272 272 271 271 273 273 273 272 273 273 273 273 274 275 276 277 279 281 284 287 289 290 292 292 294 295 296 297 297 298 298 299 299 299 300 301 301 302 302 303 305 305 305 305 305 305 306 305 305 305 305 305
274 273 272 271 270 270 270 269 269 269 269 269 270 270 270 270 270 270 270 270 270 270 270 271 272 272 273 273 272 272 272 273 273 273 273 273 273 272 271 270 270 271 271 270 271 273 274 274 275 277 279 281 284 287 289 291 292 293 294 295 296 297 298 298 299 299 299 300 300 301 301 302 303 304 305 305 304 304 305 305 305 304 304 305 305
273 272 271 270 270 270 269 269 269 269 269 269 269 269 270 270 270 270 270 270 270 270 270 270 270 270 271 272 271 271 272 274 275 274 274 273 272 271 271 270 270 270 269 269 269 271 272 273 274 275 277 279 282 284 287 290 292 293 294 295 296 297 298 298 299 299 299 300 300 301 301 302 303 303 304 304 304 304 304 304 304 304 303 304 304
272 271 271 270 270 269 269 269 269 269 269 269 269 269 269 269 269 270 270 270 270 269 269 269 269 269 269 270 270 270 272 272 272 272 273 273 272 271 271 271 271 270 269 268 269 269 270 271 272 274 275 277 279 282 284 287 290 292 294 295 296 296 297 298 298 299 299 299 300 300 301 301 302 303 303 304 304 304 303 303 304 304 304 304 304
272 271 270 270 269 269 269 269 269 269 269 269 269 269 269 269 269 269 269 269 269 269 269 269 269 269 269 268 268 269 270 270 270 271 271 272 272 272 271 270 270 270 269 268 268 269 269 269 271 272 274 275 277 279 282 284 287 290 293 295 296 296 297 298 298 299 299 299 300 300 301 301 302 302 303 303 304 305 304 304 304 304 305 305 304
271 270 270 269 269 269 268 268 268 268 268 268 268 268 268 268 268 268 269 269 269 269 269 269 268 269 268 268 268 268 269 269 269 270 270 271 271 272 271 270 270 270 269 268 268 268 269 269 270 271 272 274 276 278 280 282 284 287 291 293 295 296 296 297 298 298 299 299 300 300 300 301 301 302 302 303 304 304 304 304 304 304 304 304 303
271 270 270 269 269 268 268 268 268 268 268 268 268 268 268 268 268 268 268 268 268 269 269 268 269 269 269 268 268 269 270 270 269 269 270 270 271 271 271 271 270 269 269 268 268 268 268 269 269 270 271 272 274 276 278 280 282 284 287 290 293 295 296 296 297 297 298 299 299 300 300 300 301 301 302 302 302 302 302 303 303 304 303 303 302
270 269 269 269 268 268 268 268 268 268 268 268 268 267 268 268 268 268 268 268 268 268 268 268 268 269 269 269 269 269 269 270 269 269 269 269 270 271 271 271 271 270 269 269 268 268 268 269 269 270 270 271 272 273 275 277 279 281 284 287 290 293 295 296 296 297 297 298 298 299 300 300 301 301 301 301 301 301 301 302 302 302 302 302 302
269 269 269 269 268 268 268 268 268 267 267 267 267 267 267 267 267 268 268 268 268 268 268 268 268 268 268 268 268 268 269 269 269 268 268 269 269 270 271 271 272 272 271 270 269 269 269 269 270 270 271 271 271 272 273 275 277 279 282 285 287 290 293 294 295 296 297 297 298 298 299 300 300 300 300 300 301 301 301 301 301 301 301 301 301
269 269 269 268 268 268 268 267 267 267 267 267 267 267 267 267 267 267 267 267 268 268 268 268 268 268 268 268 268 268 268 268 268 268 268 268 268 269 270 271 272 272 272 270 269 269 269 269 270 271 271 271 272 272 273 274 275 277 280 283 286 288 291 292 294 295 296 297 297 298 298 299 299 299 300 300 301 301 301 301 301 301 301 300 300
268 268 268 268 268 268 267 267 267 267 267 267 267 267 267 267 267 267 267 267 267 267 268 268 268 268 268 268 268 268 268 268 268 268 268 268 268 268 269 270 271 272 272 271 269 269 269 269 270 271 272 272 272 272 273 274 275 277 279 282 284 287 289 291 293 294 295 296 297 297 298 298 298 298 299 299 300 300 300 300 300 300 300 300 300
268 268 268 268 268 267 267 267 267 267 267 267 267 267 267 267 267 267 267 267 267 267 267 267 267 267 267 268 267 267 267 267 267 267 267 267 267 268 268 269 270 271 271 271 270 269 269 269 269 270 271 272 273 273 273 274 275 277 279 280 282 285 287 289 291 293 294 295 296 297 297 297 298 298 298 298 298 299 299 299 299 299 300 300 300
268 268 268 268 268 267 267 267 267 267 267 267 267 267 267 267 267 267 267 267 267 267 267 267 267 267 267 267 267 267 267 267 267 267 267 267 267 267 268 268 269 270 271 271 270 269 269 269 269 269 270 271 272 273 273 274 275 276 278 279 281 283 285 288 290 292 293 294 295 296 297 297 297 297 298 298 298 298 298 298 298 298 299 299 299
268 268 268 268 267 267 267 266 266 266 267 267 267 267 267 267 267 267 267 267 267 267 267 267 267 267 267 267 267 267 267 267 267 267 267 267 267 267 267 268 268 269 270 270 270 270 269 269 269 269 269 270 271 272 273 274 275 276 277 278 280 282 284 286 288 290 292 293 294 295 296 296 296 297 297 297 298 298 298 298 298 298 298 298 298
268 268 268 267 267 267 266 266 266 266 266 267 267 267 267 267 267 267 267 267 267 267 267 267 267 267 267 267 267 267 267 267 267 267 267 267 267 267 267 267 268 268 269 269 270 269 269 269 269 269 269 269 270 271 272 273 274 275 276 278 279 281 283 285 286 288 290 292 293 294 295 295 296 296 296 297 297 297 297 298 298 298 298 298 298
268 268 268 267 267 267 266 266 266 266 266 266 267 267 267 267 267 267 267 267 267 267 267 267 267 267 267 267 267 267 267 267 267 267 266 266 266 266 266 267 267 267 268 269 269 269 269 269 268 268 268 268 269 270 271 272 273 274 275 277 278 280 281 283 284 286 287 289 291 292 293 293 294 294 295 295 296 296 296 297 297 297 297 297 297
Wind_Speed
18 20 22 25 27 28 30 31 32 34 35 36 38 39 41 42 43 45 46 47 47 49 51 51 53 55 56 57 57 56 56 55 52 47 45 44 42 41 39 37 37 38 39 40 39 37 38 40 43 41 38 37 36 36 39 38 37 37 35 36 37 36 39 40 40 48 59 60 53 44 39 46 55 55 60 64 63 63 61 61 63 62 62 62 64
17 20 22 25 27 28 30 31 32 34 35 36 38 39 41 42 43 45 46 47 48 49 51 52 53 54 55 56 56 56 53 51 49 45 42 42 40 38 36 34 36 37 37 39 39 38 39 39 39 37 36 37 37 36 37 36 35 36 36 35 37 37 37 41 41 42 52 59 57 49 42 45 56 55 60 64 62 63 63 63 66 63 63 70 75
18 21 23 25 26 28 30 31 33 34 35 37 38 40 41 42 43 45 46 47 48 49 51 52 53 53 54 54 54 54 51 48 47 43 41 40 38 38 36 34 34 35 35 36 35 37 38 37 36 34 32 34 35 35 36 36 34 36 37 36 37 38 37 40 41 40 46 55 57 51 44 46 58 56 59 61 60 63 63 64 68 67 68 76 80
19 21 23 25 26 28 30 31 33 35 36 37 38 40 42 43 44 45 46 47 48 50 51 51 52 52 52 52 52 52 49 46 45 43 41 40 38 38 37 36 36 35 35 33 29 30 33 36 37 35 30 30 33 35 35 35 35 35 36 37 36 38 38 38 41 41 42 48 54 52 46 46 59 56 57 57 57 63 62 63 70 72 75 81 82
19 21 23 25 26 28 30 31 33 35 36 37 39 40 42 44 44 45 46 47 48 50 51 50 50 51 51 50 49 50 48 44 43 42 40 39 38 38 38 38 39 39 38 36 32 30 30 34 37 37 32 28 30 34 34 34 35 35 35 37 37 37 37 37 39 41 41 44 50 52 48 50 58 56 59 58 55 60 62 64 71 72 72 77 80
19 21 23 25 27 28 30 32 33 35 36 38 40 42 44 45 46 46 46 47 48 50 50 50 49 49 49 48 46 46 45 42 40 40 39 38 38 38 38 39 40 40 38 37 38 40 39 37 37 38 35 28 27 31 33 34 36 36 36 35 36 37 35 34 35 37 39 42 47 50 49 54 57 54 59 63 61 60 60 63 68 72 71 69 73
19 22 24 25 27 29 31 33 35 36 38 40 41 43 45 46 46 47 46 47 49 50 50 49 49 47 46 45 43 41 40 39 38 38 37 37 36 37 38 38 38 38 37 35 36 41 44 42 39 39 38 31 27 29 32 34 36 37 36 35 34 36 35 32 32 34 37 40 45 50 48 54 58 58 60 64 66 65 65 62 60 67 72 67 69
19 22 24 26 27 29 32 34 36 37 39 41 42 44 46 47 47 47 47 47 49 50 50 49 47 45 44 43 41 38 37 37 36 36 35 35 36 36 36 37 36 36 35 33 31 32 35 39 40 41 40 34 29 28 31 34 35 36 36 34 33 34 34 30 29 32 37 40 45 49 49 52 53 59 61 62 67 69 71 70 63 66 71 68 69
19 22 24 26 28 30 33 35 37 38 40 41 43 44 46 47 47 47 47 48 49 49 49 48 47 45 43 43 41 38 36 36 35 35 34 35 35 36 37 38 38 37 34 32 32 30 29 33 38 42 41 36 33 31 33 34 34 36 36 33 32 33 33 31 29 32 36 38 44 46 52 56 53 56 58 60 70 73 72 74 71 69 71 69 68
19 22 24 26 28 31 33 35 37 39 40 42 43 44 46 47 47 47 47 48 49 49 49 48 47 46 44 44 42 40 39 38 36 34 34 34 34 36 38 39 40 40 35 32 32 32 30 30 35 40 41 38 35 33 34 34 34 36 36 33 31 32 33 32 31 33 35 35 42 46 53 58 58 59 58 60 71 77 73 69 69 68 67 65 63
19 22 24 26 29 31 34 36 38 39 41 42 43 44 46 46 46 46 47 48 49 50 49 48 47 45 43 42 42 41 41 40 39 37 35 33 33 36 38 40 41 42 38 33 32 32 31 29 31 36 39 38 35 32 31 32 33 34 35 33 31 31 32 32 32 35 34 32 39 48 54 59 63 64 61 59 64 73 73 68 67 67 65 63 60
19 22 24 27 29 32 34 36 38 40 41 41 42 43 45 45 45 45 46 48 49 50 49 48 46 44 43 42 42 40 40 39 38 36 35 33 33 35 36 38 41 42 40 36 33 32 32 30 30 33 37 37 36 33 33 34 34 34 34 32 31 31 32 32 34 36 35 31 35 47 57 62 67 66 61 58 59 66 69 67 68 69 68 66 64
19 22 24 27 29 32 35 37 39 40 40 41 41 42 44 44 44 45 46 48 50 50 49 47 46 45 44 43 43 41 38 36 35 34 33 33 33 34 35 37 39 40 40 37 33 31 31 30 31 34 36 36 37 36 36 37 36 35 34 32 31 32 32 33 36 37 36 31 31 42 59 66 68 66 63 61 63 66 66 66 68 68 68 68 68
19 22 24 27 30 32 35 37 39 39 39 40 40 41 42 43 42 44 46 48 49 49 49 48 46 45 44 44 44 41 36 34 33 32 31 31 32 33 35 37 38 39 40 38 34 31 30 30 30 32 34 35 36 36 36 37 36 36 34 33 32 32 33 34 35 38 38 34 30 36 56 69 71 70 68 66 69 71 71 71 71 69 69 68 67
19 22 24 27 30 33 36 37 38 38 39 39 39 40 41 41 41 44 46 47 48 48 48 47 47 46 44 44 44 41 36 34 33 30 27 28 31 33 34 36 36 37 38 38 35 32 30 30 30 31 33 34 35 36 36 34 34 35 35 35 33 33 34 34 34 37 39 37 33 33 50 68 72 73 73 71 74 76 76 76 76 74 71 65 61
19 21 25 28 30 33 36 37 37 38 38 38 38 39 39 39 41 43 46 46 46 47 46 46 46 46 46 44 43 42 37 33 31 28 27 29 32 35 36 36 36 35 35 34 33 32 30 30 30 30 31 30 29 32 34 33 32 34 36 38 36 35 35 33 32 35 38 38 35 34 45 65 71 73 75 74 73 74 71 69 70 71 68 61 57
19 22 25 28 31 33 35 35 36 36 37 37 37 38 38 39 40 42 45 46 46 47 47 47 47 47 47 44 43 43 40 33 31 30 29 32 34 35 35 35 35 34 34 32 31 31 30 30 31 31 31 29 26 26 28 30 32 34 37 38 38 38 37 32 30 34 37 37 37 36 44 62 69 72 76 75 73 73 70 65 65 67 66 60 56
19 22 25 28 30 32 33 33 34 35 35 35 36 37 37 38 39 41 43 45 46 47 47 49 48 47 47 45 42 43 41 36 34 34 33 34 34 32 33 34 35 34 33 32 30 30 30 30 29 30 30 30 28 27 26 27 30 34 36 37 38 40 37 29 27 31 33 35 37 38 45 61 68 68 72 73 75 77 75 73 72 70 68 65 61
19 22 25 27 29 30 30 31 32 34 34 33 34 35 36 36 38 40 42 43 46 47 46 48 50 48 47 44 43 44 42 38 37 37 36 33 29 29 32 33 34 34 33 32 31 31 32 31 27 26 27 28 28 28 28 28 29 32 33 34 37 40 36 28 24 27 29 32 38 39 45 59 64 63 67 69 73 79 79 79 79 74 71 69 66
20 23 25 26 27 28 28 29 30 31 32 32 33 34 34 35 37 40 41 43 45 46 47 48 49 50 48 45 44 43 40 38 40 39 36 31 27 28 31 32 31 32 32 33 32 32 33 33 31 29 29 29 28 28 28 29 29 31 32 33 36 38 35 30 25 23 24 28 37 40 45 54 56 58 63 64 67 75 79 80 81 79 75 70 67
20 22 24 25 25 25 26 28 29 29 30 31 32 32 32 34 37 39 41 43 44 46 48 48 49 50 47 44 45 43 37 37 42 41 37 34 29 28 30 31 30 30 31 32 33 33 33 32 32 32 32 32 31 29 28 28 29 30 32 33 35 35 33 31 26 20 20 26 35 40 45 55 58 59 63 63 62 68 73 76 79 80 78 74 72
20 22 23 23 23 23 24 25 27 27 28 29 31 32 31 32 35 38 40 42 44 46 48 49 50 51 48 46 46 43 38 40 43 40 38 37 34 30 30 30 29 29 29 29 30 33 34 32 30 29 30 31 31 28 27 28 28 30 31 31 32 33 32 31 26 20 18 26 37 40 45 56 60 60 63 65 65 65 67 71 75 76 77 78 79
20 21 22 21 21 21 22 23 25 26 27 28 30 32 32 32 34 37 39 41 43 45 48 49 50 49 49 50 48 43 42 46 45 40 39 41 38 34 31 30 28 27 28 27 27 29 32 32 29 26 25 26 28 27 26 26 27 28 29 28 29 31 29 28 26 20 18 26 39 42 45 53 58 59 62 65 65 65 67 70 73 73 73 76 77
19 20 20 20 19 20 21 21 23 24 26 28 29 31 32 33 34 36 39 39 41 45 47 48 49 49 49 51 50 47 49 51 47 42 43 43 40 38 36 33 30 27 27 26 24 24 27 29 30 28 25 25 25 26 26 26 26 27 27 27 27 28 27 27 25 20 19 27 40 44 47 53 58 61 64 66 67 68 69 69 71 71 69 69 70
18 18 18 18 18 18 19 19 20 22 25 27 29 31 32 33 34 36 38 39 39 43 45 46 46 47 48 49 49 50 53 52 48 46 46 44 41 41 41 39 34 30 28 25 22 21 23 25 27 29 28 26 25 25 26 26 26 27 27 26 25 26 27 26 23 20 21 31 41 46 50 55 57 61 66 68 68 69 67 66 65 65 64 63 65
16 16 16 17 17 18 18 17 18 20 23 25 28 29 31 33 34 35 37 38 38 40 41 43 44 46 48 47 46 50 53 52 51 51 50 48 47 46 45 43 39 35 31 25 20 19 21 23 24 27 28 27 26 25 24 24 24 24 24 23 25 27 27 25 23 22 26 35 44 49 53 56 57 59 63 65 65 66 67 66 64 62 62 62 62
15 14 14 15 16 17 17 17 17 19 21 24 26 28 30 31 32 33 35 37 39 39 39 40 42 45 47 46 46 50 52 51 52 53 52 52 50 48 46 43 40 37 33 27 21 18 18 20 22 23 25 27 26 25 23 22 21 22 22 23 25 27 27 25 25 26 29 38 46 49 53 56 56 55 59 62 63 65 67 68 66 62 60 60 60
13 13 13 14 15 15 16 17 18 19 20 22 25 28 30 31 31 31 31 34 36 37 37 38 39 42 44 44 47 51 52 50 50 51 51 50 48 46 44 41 38 37 36 32 27 22 18 16 17 20 22 25 26 25 24 22 21 22 23 23 25 26 26 25 27 28 30 38 45 45 47 52 54 53 56 60 62 63 65 65 65 64 61 57 57
12 12 12 13 14 14 15 16 18 20 20 21 21 23 27 30 31 29 28 29 30 31 32 34 35 37 40 41 44 48 49 49 48 47 45 43 41 41 38 34 33 36 37 35 30 25 20 15 14 17 20 23 25 25 24 24 23 24 24 23 24 26 26 26 29 30 31 36 41 42 44 49 52 52 54 58 59 61 63 62 62 63 61 59 57
11 11 11 12 12 12 13 15 17 19 22 22 22 21 21 23 27 28 27 27 26 27 29 30 31 32 35 38 40 41 42 43 45 44 43 40 37 34 31 27 28 33 36 35 28 22 19 15 13 15 18 21 23 24 24 25 25 26 25 23 23 25 27 28 30 32 33 36 41 43 46 49 51 51 54 56 57 59 62 62 61 61 61 59 58
9 10 10 11 11 12 13 15 17 18 21 23 25 25 23 21 21 23 25 26 26 26 28 29 30 32 34 36 40 41 39 40 42 43 42 38 34 32 28 25 25 29 31 27 18 12 13 14 14 15 18 20 22 23 24 26 27 26 24 23 24 26 28 30 31 31 34 39 43 46 48 49 51 52 54 56 57 58 59 60 60 61 61 60 58
8 9 9 9 10 11 13 15 17 18 20 22 25 27 28 27 24 23 23 24 27 28 30 31 32 33 35 36 40 43 43 42 42 42 40 37 33 30 26 23 23 26 24 15 6 3 4 8 10 12 15 19 20 20 21 23 25 26 24 24 25 27 30 31 31 32 37 42 44 46 49 50 52 53 54 56 56 57 57 57 57 59 60 59 57
7 8 8 8 9 11 12 15 17 18 20 22 24 26 29 31 32 30 27 26 26 27 30 32 33 34 36 38 41 44 44 43 42 40 40 38 34 31 25 19 18 21 18 12 9 9 7 4 3 5 9 13 16 18 21 22 23 23 24 25 26 28 30 31 29 31 38 43 44 46 49 51 53 53 54 55 56 57 57 57 57 57 57 55 54
7 7 7 7 8 10 12 14 16 18 19 21 23 25 26 28 31 33 34 33 31 30 31 32 34 36 37 39 42 44 45 45 43 41 41 39 36 32 25 15 10 12 17 19 20 18 15 11 7 4 6 9 12 15 18 21 23 23 23 24 26 28 29 28 28 31 39 43 44 45 47 49 52 53 54 54 55 56 57 58 57 56 56 54 52
6 7 7 7 8 10 12 13 15 16 19 20 22 24 25 26 28 30 33 35 36 37 36 35 36 38 38 40 42 43 44 45 45 43 42 42 39 33 28 23 22 22 25 27 27 24 22 19 16 10 6 8 11 13 15 18 22 24 24 23 24 27 28 27 27 33 40 43 44 46 46 48 51 54 55 55 55 56 57 58 59 58 57 56 52
6 6 6 6 8 9 11 12 14 16 18 20 21 22 23 25 26 28 29 31 33 35 37 37 37 37 38 39 41 42 43 44 45 44 42 42 42 39 38 40 39 38 37 36 33 29 26 24 21 16 11 8 8 12 15 17 18 21 23 23 23 25 27 27 29 34 40 44 45 47 47 48 51 53 54 54 55 57 58 59 59 59 58 56 53
5 5 5 5 7 8 10 11 13 15 17 18 19 20 21 22 24 25 27 29 31 33 35 38 39 39 40 41 43 43 42 41 42 43 43 43 43 45 46 46 44 43 43 42 39 34 31 29 26 21 17 12 8 8 12 16 18 19 21 23 24 25 27 28 30 35 40 44 45 47 49 50 51 53 53 54 55 57 58 59 59 58 58 57 54
4 4 4 4 6 7 8 10 11 13 15 16 17 18 20 21 22 24 26 28 30 32 34 36 39 41 42 43 44 44 42 42 43 46 48 47 47 47 47 46 45 46 46 46 43 40 37 34 30 27 23 18 12 8 7 11 16 19 21 23 24 26 28 28 30 35 40 43 44 46 49 51 52 53 54 55 56 56 56 57 59 58 56 55 55
3 3 3 4 5 6 7 9 10 12 13 15 16 17 19 20 22 23 25 26 28 30 32 34 36 38 40 42 43 42 43 45 47 49 49 48 48 47 48 47 47 48 48 48 47 45 43 39 35 32 28 23 18 13 8 5 9 14 19 22 24 26 28 30 31 35 40 42 43 45 48 50 52 53 55 55 56 56 56 56 58 58 57 56 56
3 2 3 3 4 5 6 8 10 11 12 14 15 16 18 20 21 23 24 25 27 28 30 32 33 34 36 38 39 40 41 44 46 47 48 48 47 47 48 49 49 49 49 49 48 47 46 43 40 36 33 29 24 19 14 8 2 6 13 19 22 24 28 31 33 36 40 43 43 44 47 50 51 52 54 55 55 56 57 57 57 57 58 58 57
3 3 3 2 3 5 6 8 9 11 12 13 14 16 17 19 20 22 23 24 25 26 28 29 30 31 32 33 33 35 37 40 43 44 45 46 46 45 46 47 47 48 49 48 47 47 47 46 44 42 38 34 29 24 19 14 8 2 6 14 20 23 26 29 32 35 39 43 44 44 46 49 51 52 52 53 54 55 57 58 57 57 57 57 56
3 3 2 2 3 4 6 7 9 10 11 12 14 15 16 17 19 20 21 22 24 25 26 27 27 28 29 30 30 31 34 37 40 42 43 44 44 44 44 44 45 47 49 48 47 47 47 47 47 46 43 40 36 31 26 20 15 10 4 8 15 20 24 28 31 34 37 41 44 45 46 47 49 51 52 52 52 53 54 55 56 56 56 55 55
4 3 2 1 2 3 5 7 8 9 10 11 13 14 15 16 17 18 19 21 22 23 24 26 26 27 28 28 29 31 33 35 37 40 42 43 43 43 42 42 42 45 47 48 47 47 48 48 48 48 46 44 42 38 33 28 23 17 10 5 9 15 21 25 29 32 35 38 40 43 45 47 48 49 50 50 50 51 51 52 53 54 54 54 54
5 4 3 1 1 3 4 6 7 8 9 10 12 13 14 15 16 17 18 19 20 22 23 24 25 27 27 28 29 31 33 34 36 38 40 41 42 42 41 41 41 42 45 48 48 48 48 49 49 49 49 48 46 43 39 35 30 24 17 9 4 9 15 21 25 29 33 35 37 39 42 46 48 49 49 49 49 49 49 50 51 52 52 53 53
6 5 3 2 1 2 4 5 6 7 9 10 11 12 13 14 15 16 17 18 19 20 22 23 24 25 27 28 29 30 31 32 34 36 38 39 40 40 40 40 39 40 43 46 48 48 49 50 50 51 51 51 50 48 45 40 36 31 24 16 9 4 8 14 19 25 29 33 35 37 39 42 45 47 48 49 50 50 50 50 51 51 52 52 53
7 5 3 1 1 2 3 4 5 6 8 9 11 12 13 14 14 15 16 17 18 19 20 21 23 24 25 27 28 28 29 30 32 33 35 36 37 38 39 39 39 39 41 45 47 48 49 50 51 52 52 52 52 51 49 46 41 36 30 23 15 8 4 7 12 18 24 29 33 35 36 38 41 42 44 46 48 48 49 49 50 51 51 52 53
7 5 3 1 1 2 3 4 5 6 7 9 10 11 12 13 14 15 15 16 17 18 19 20 21 23 24 25 26 27 28 29 29 31 32 34 35 36 37 38 38 39 40 43 46 48 49 50 51 52 52 52 52 53 52 50 46 41 36 30 23 15 7 2 7 12 18 23 27 30 31 33 36 38 40 41 42 44 45 45 46 48 50 50 51
7 5 3 2 1 1 2 3 4 5 7 8 9 10 11 12 13 13 15 16 17 18 19 19 20 21 22 23 24 25 26 26 27 28 30 31 33 34 35 37 38 38 39 40 44 47 49 51 52 52 52 52 52 52 53 52 49 45 40 35 28 21 13 5 3 8 13 17 21 24 26 27 29 32 35 37 39 41 42 42 43 45 46 47 47
7 5 4 2 2 1 2 3 4 5 6 7 9 10 10 11 12 13 14 15 16 17 18 19 20 20 21 22 23 23 24 25 25 26 27 29 31 32 33 34 36 37 38 39 42 45 48 50 51 52 53 53 52 51 51 51 51 48 44 39 33 26 19 12 6 5 9 13 16 19 21 23 24 26 29 31 34 36 39 40 41 42 43 44 45
7 6 4 3 2 2 1 2 3 4 5 6 8 9 10 10 11 12 13 14 15 16 17 18 19 19 20 21 22 22 23 24 24 25 26 27 28 30 31 32 34 36 37 38 39 42 45 47 50 51 52 52 52 51 50 50 49 48 45 41 37 33 27 21 14 9 7 9 13 15 18 20 22 23 25 27 29 31 34 36 39 40 42 43 44
7 6 4 3 3 2 2 2 2 3 5 6 6 7 9 10 10 11 12 13 14 15 16 17 18 18 19 20 21 21 22 23 23 23 24 25 26 27 29 31 32 34 35 36 37 39 42 45 48 50 51 52 52 52 50 49 48 46 44 43 40 38 35 30 24 17 12 9 10 12 15 17 19 21 23 25 26 28 30 32 35 37 39 41 42
Wind_Direction
308 313 315 315 316 319 319 320 321 321 323 323 323 322 322 322 323 323 323 323 324 323 322 322 320 318 316 313 311 310 307 305 305 304 303 300 296 295 293 288 285 283 279 273 265 259 259 258 254 246 242 246 250 253 252 244 243 249 253 259 259 256 253 250 251 253 254 252 253 264 259 227 216 217 213 211 214 217 217 216 213 212 208 202 197
308 311 312 314 317 319 319 320 322 323 323 324 323 323 323 323 324 323 324 325 325 324 322 321 319 316 314 312 311 310 309 307 307 306 302 297 293 291 289 285 286 286 282 276 268 261 258 256 254 247 244 247 249 252 251 243 243 248 252 257 257 256 254 250 250 250 253 254 251 260 261 225 209 211 210 209 208 205 205 206 207 207 202 192 186
307 308 311 315 317 319 320 322 323 323 324 324 324 324 323 323 324 325 326 326 325 323 321 319 317 315 314 312 310 310 310 309 308 305 298 293 289 286 284 282 282 283 283 281 275 266 259 255 251 242 244 250 249 250 248 242 244 248 252 257 256 256 255 250 251 249 249 253 250 258 261 223 204 207 208 209 208 202 196 194 195 197 192 183 178
305 308 312 316 319 320 322 323 324 324 324 325 324 324 324 325 326 327 327 326 324 322 320 319 318 316 315 313 311 311 311 311 309 305 297 292 288 285 285 284 280 277 275 276 277 272 263 257 249 238 240 250 250 249 246 241 244 248 252 257 255 255 254 251 252 247 247 251 249 257 260 222 202 203 205 206 203 198 194 186 184 185 180 177 175
304 309 313 318 321 322 323 323 323 324 325 325 325 325 326 327 328 328 327 325 323 321 320 320 320 318 316 314 312 311 312 311 309 304 299 295 292 288 286 285 284 283 275 264 260 261 257 254 248 237 237 249 252 251 246 240 244 249 253 257 257 255 253 254 255 247 246 247 247 256 252 217 199 198 200 201 195 190 189 183 179 179 175 173 173
306 312 317 320 323 323 323 324 324 325 326 327 327 327 327 328 328 328 327 326 323 321 322 323 323 320 317 315 313 312 312 311 308 304 300 299 296 292 290 287 285 285 281 269 258 253 249 248 245 238 236 244 251 252 249 245 246 250 254 258 259 256 253 257 256 248 246 244 245 253 239 208 195 192 192 196 192 182 179 176 175 174 172 169 169
309 315 320 322 323 323 324 325 326 328 329 329 329 329 328 328 328 328 328 326 323 323 325 326 326 322 318 316 316 315 313 311 308 306 304 302 299 296 293 290 286 282 281 277 267 259 254 249 244 239 237 241 245 247 248 247 247 250 254 259 262 258 255 257 255 250 245 239 243 247 226 199 193 190 186 188 187 179 173 169 166 166 167 167 167
313 317 321 323 324 325 326 327 328 330 331 331 330 329 328 328 328 329 329 326 325 326 328 329 328 325 321 319 320 319 314 311 310 310 309 307 304 300 296 293 290 287 284 282 280 273 264 256 247 239 238 240 241 241 244 246 248 249 252 258 261 259 257 256 254 251 241 236 245 240 210 189 186 184 180 177 175 173 171 167 162 161 165 168 169
315 319 322 324 326 327 328 329 329 331 332 331 330 329 328 329 329 330 329 327 327 329 331 332 331 328 325 323 324 323 318 314 313 314 315 311 306 302 297 293 293 292 288 285 286 285 275 263 250 241 239 240 239 240 242 243 247 250 253 258 260 260 259 256 255 250 238 238 250 234 197 180 177 174 173 172 168 166 167 166 164 164 166 168 170
315 320 324 326 328 328 329 330 331 331 331 331 331 330 329 329 330 331 330 329 330 332 334 335 335 333 329 326 325 324 320 317 316 318 318 311 300 294 291 289 289 289 287 280 280 283 282 273 255 243 241 242 241 244 245 245 247 251 254 258 261 262 262 260 257 247 239 247 248 222 187 175 174 171 171 171 166 164 165 164 164 164 164 165 167
316 322 326 328 329 329 329 330 331 331 331 331 332 331 330 331 332 332 331 330 332 336 338 338 335 333 329 326 324 323 319 317 319 320 317 307 295 288 286 285 284 285 284 278 273 273 275 276 264 250 245 245 244 245 247 247 249 251 255 258 261 263 262 263 261 246 241 252 241 210 183 172 173 172 172 170 163 161 163 164 162 161 162 163 164
319 325 328 329 329 330 330 330 331 331 331 332 333 333 331 332 333 333 332 333 336 339 340 339 336 333 330 328 325 322 318 316 319 319 314 304 295 288 285 284 282 282 283 280 274 270 267 270 268 257 248 245 244 244 246 248 249 251 256 259 260 263 261 261 262 249 241 252 239 205 182 173 174 175 174 172 165 163 164 164 163 163 165 166 166
322 327 329 329 329 330 330 330 331 331 333 334 335 334 333 333 335 335 334 337 340 341 341 340 337 334 332 330 328 324 319 317 321 323 317 306 297 292 288 285 283 282 282 278 274 270 268 268 267 260 251 244 243 245 247 250 253 254 258 260 260 262 262 260 260 252 242 248 244 209 184 175 176 178 178 176 171 168 167 167 167 168 169 170 172
324 328 330 329 330 330 330 330 331 333 334 335 336 335 333 335 337 337 337 340 342 342 341 340 338 335 335 334 332 328 324 323 325 325 321 312 303 297 293 289 286 284 283 281 275 268 265 266 267 264 258 248 242 245 249 251 255 257 258 260 260 262 264 261 258 252 240 240 248 220 190 180 180 181 181 180 177 173 172 173 173 174 174 175 177
326 329 329 329 330 330 330 331 332 334 335 337 337 335 335 338 340 339 340 343 344 342 341 340 339 338 338 337 335 331 329 330 330 328 325 320 311 305 301 295 290 286 283 282 279 270 263 263 264 265 264 256 246 244 248 251 255 258 258 259 260 262 264 262 255 250 239 234 244 232 197 185 184 183 181 182 181 179 177 177 177 176 176 175 176
327 328 329 330 331 330 331 333 334 335 336 338 337 336 337 342 342 341 342 344 345 344 341 340 340 341 342 340 337 335 335 336 336 334 331 324 315 311 310 304 297 290 283 279 276 270 263 261 261 262 264 264 258 250 248 248 251 256 257 258 260 262 264 262 253 246 239 233 239 237 205 188 185 184 182 182 181 179 176 174 173 173 172 171 173
327 328 329 331 332 332 333 334 335 336 337 338 338 337 341 345 344 342 343 345 346 345 343 343 343 343 343 342 338 338 339 341 343 342 335 326 318 315 315 312 305 296 286 279 273 268 264 260 258 258 257 257 257 254 251 251 250 254 256 257 261 263 263 262 251 241 239 235 236 235 213 193 186 184 183 182 180 178 175 171 171 172 170 170 172
326 329 331 332 333 335 335 336 336 336 338 339 338 339 344 347 345 344 345 347 347 347 346 345 345 344 343 342 341 339 338 342 347 342 330 324 321 318 319 319 313 303 291 283 278 272 270 267 261 260 259 257 254 248 247 249 249 253 256 257 261 263 262 263 252 240 241 237 232 231 214 196 188 184 182 180 180 181 181 177 176 174 173 172 174
328 331 334 334 335 337 337 337 337 337 338 339 340 342 347 348 346 346 347 348 349 349 348 346 345 345 344 343 343 341 340 343 345 336 326 327 328 324 323 322 319 311 298 289 283 278 278 277 270 262 258 258 259 254 250 248 247 250 254 255 260 262 262 265 259 247 245 233 223 223 209 194 189 185 181 180 181 184 186 183 179 176 176 176 175
331 333 335 336 337 338 337 337 338 337 337 340 342 345 349 349 348 347 348 350 351 351 350 348 346 345 345 344 343 344 344 341 336 331 333 338 335 327 324 323 322 319 309 296 286 281 280 280 277 271 262 258 261 261 259 255 248 247 250 252 258 262 263 268 263 253 251 234 219 216 207 196 196 193 185 181 182 184 186 185 181 180 180 177 176
334 334 336 337 338 339 338 337 338 338 339 342 344 347 351 351 350 349 350 352 353 352 352 350 347 346 346 344 343 345 343 336 332 335 342 344 338 331 326 322 321 321 315 303 291 282 280 278 275 273 269 267 267 265 263 258 250 246 247 251 257 262 265 270 264 253 255 239 221 213 202 195 198 197 189 186 185 184 184 184 183 183 183 180 179
335 334 336 338 338 339 339 339 338 338 342 345 345 348 353 355 352 350 352 354 354 355 355 352 349 348 346 344 345 345 339 334 335 339 343 342 340 336 329 322 319 316 315 309 297 286 282 279 276 272 267 265 264 261 260 257 249 245 245 249 257 260 263 269 265 252 249 235 219 209 196 190 191 193 190 189 188 186 185 185 184 185 186 186 187
334 334 336 337 338 339 340 341 340 340 345 348 347 349 354 358 355 352 355 358 356 356 357 355 351 349 346 345 347 344 336 337 340 342 341 340 340 337 332 327 321 315 311 309 301 290 284 281 280 276 267 260 258 256 255 252 246 244 244 247 254 258 263 268 264 253 242 224 212 204 194 187 186 187 189 190 188 186 187 187 186 187 189 191 193
333 335 336 335 337 340 342 343 342 344 349 351 350 352 356 360 358 354 357 1 359 358 359 356 352 350 348 347 347 343 339 340 343 344 343 341 337 335 333 330 326 319 311 303 294 287 284 284 284 280 270 260 255 253 252 246 240 239 240 242 249 257 263 266 259 249 235 215 204 199 193 188 186 188 190 192 192 191 190 190 188 189 191 192 193
333 334 334 333 335 340 344 346 346 350 355 353 353 355 358 0 1 358 358 2 3 2 0 355 351 351 349 347 344 341 340 341 342 344 345 340 335 333 332 331 329 325 316 304 290 278 275 279 285 284 276 265 255 251 250 244 237 235 238 241 248 255 259 260 253 242 228 210 199 195 195 193 192 193 192 192 192 191 192 191 189 189 191 192 192
332 333 332 332 336 340 344 348 353 358 0 357 355 359 0 1 3 2 360 1 5 7 2 355 353 353 351 348 344 340 340 342 343 345 344 339 336 335 332 331 330 327 321 311 296 280 268 265 273 279 277 267 255 249 249 245 238 236 237 241 247 252 254 253 244 232 220 208 198 195 197 197 196 194 191 190 189 189 191 192 190 189 191 192 192
330 331 331 332 337 341 343 349 358 6 6 1 358 360 2 4 6 6 2 0 4 7 4 359 358 355 352 351 347 343 342 343 344 345 343 339 337 335 332 331 330 328 324 316 304 290 274 263 263 269 272 266 256 249 248 245 237 234 234 237 243 249 250 247 238 226 217 209 201 197 195 195 193 190 189 189 190 190 192 193 191 190 191 193 192
328 329 331 334 338 342 345 352 1 8 10 9 5 1 1 4 10 12 9 5 6 6 2 2 2 357 354 354 350 346 345 345 345 344 341 338 337 334 331 331 330 326 320 314 306 296 281 269 262 260 259 259 254 248 245 241 235 232 232 234 240 246 247 244 236 227 219 212 204 197 192 190 190 189 189 189 191 191 192 193 193 192 192 192 191
325 328 331 335 339 342 348 356 3 5 6 12 16 12 4 2 6 13 16 15 15 11 5 5 4 358 357 359 354 348 345 344 344 343 340 339 338 333 328 329 330 324 315 309 306 295 279 268 264 259 251 247 248 247 242 239 237 235 232 231 236 242 243 241 234 225 217 210 204 198 192 189 189 191 191 190 191 192 193 193 193 192 192 192 191
322 326 328 332 338 342 350 1 6 4 2 4 12 20 19 9 4 8 14 17 19 17 13 12 10 4 2 4 360 353 347 343 343 344 344 341 339 333 327 326 329 324 316 312 308 291 267 251 252 262 257 246 242 244 242 241 241 239 234 230 233 238 239 237 233 222 213 208 205 201 197 193 192 193 193 191 191 192 194 194 194 192 192 191 190
317 322 326 330 336 343 354 4 8 6 3 3 4 8 15 18 15 12 12 13 16 18 16 15 16 15 14 10 3 359 357 352 348 350 350 346 342 340 334 330 335 335 327 323 320 296 268 256 255 264 266 255 247 246 247 247 246 245 240 233 232 236 236 234 230 220 210 208 207 205 202 198 196 195 195 193 192 192 192 193 194 194 193 193 191
313 319 323 330 338 346 357 5 8 5 4 6 6 3 3 7 13 16 16 15 16 18 17 15 15 18 21 18 9 5 6 3 358 358 359 355 352 350 344 339 345 344 331 320 334 7 300 276 267 268 266 261 257 256 257 256 254 251 247 238 233 234 234 232 228 217 209 207 206 203 202 201 199 198 196 193 192 191 190 190 193 195 194 194 192
310 316 322 331 341 349 360 6 7 5 4 6 8 6 3 2 3 6 11 15 18 21 20 18 16 17 21 23 17 11 10 10 8 8 8 5 2 3 1 357 355 351 345 351 22 34 26 2 305 272 259 257 259 261 263 264 262 257 250 242 237 236 236 234 228 216 209 207 205 202 200 200 200 197 195 193 192 192 191 191 193 195 194 192 191
307 313 323 335 343 351 2 8 6 5 6 7 8 7 6 5 3 2 4 7 11 16 19 19 20 19 20 23 22 17 13 14 15 16 17 15 12 10 9 6 3 8 20 30 30 24 22 20 6 325 267 252 251 253 258 263 265 263 255 244 239 239 240 237 228 216 210 207 205 202 199 197 196 195 192 192 192 192 192 193 194 194 194 192 190
302 311 323 338 347 354 3 8 6 4 6 9 9 7 6 7 7 6 6 7 9 11 13 16 19 20 19 21 22 19 16 15 17 20 22 23 20 16 15 20 26 28 31 32 30 27 26 21 14 3 328 277 256 248 246 250 257 262 260 251 242 241 242 238 226 215 210 207 205 204 200 196 195 195 194 193 192 192 193 194 195 195 195 193 191
298 312 327 342 350 356 3 6 5 5 7 8 9 8 7 7 8 8 9 10 11 12 12 13 16 18 19 22 22 20 18 18 18 20 24 27 27 27 28 30 31 31 30 29 28 28 27 23 18 13 2 330 284 258 246 241 244 252 257 257 250 243 240 236 224 214 209 207 206 204 202 198 196 195 195 195 195 196 196 196 196 196 195 193 191
293 310 330 344 348 355 5 7 3 5 8 9 8 7 7 8 9 10 10 11 13 14 13 12 13 14 16 20 21 18 16 18 19 21 24 27 30 33 35 34 33 32 29 26 25 26 27 24 21 18 12 2 335 287 258 246 241 241 247 253 254 248 241 234 225 215 209 207 206 204 203 201 199 198 198 197 196 197 198 197 196 196 195 193 191
282 305 328 340 347 357 6 7 5 6 7 7 7 8 8 9 10 12 12 13 14 16 16 15 15 14 15 18 20 16 13 15 18 20 22 25 29 33 36 36 36 35 30 24 23 26 26 24 22 21 19 15 6 343 292 258 245 238 238 243 248 248 242 232 224 218 212 207 205 204 203 202 201 199 199 198 197 197 197 196 196 195 193 192 192
270 295 312 329 348 2 5 6 8 8 6 7 8 8 9 11 12 13 14 15 16 17 18 18 19 18 17 19 19 15 14 19 21 21 21 24 27 30 34 36 37 36 31 25 23 24 24 23 23 23 22 22 20 16 358 297 251 238 234 233 237 241 237 228 220 216 212 208 206 205 203 202 201 199 198 198 198 197 197 196 196 195 194 193 195
249 275 299 324 347 0 7 10 9 7 7 10 10 9 10 12 13 14 15 15 17 19 20 21 21 20 20 22 21 17 17 22 25 23 22 23 25 29 32 35 36 36 32 26 23 23 22 22 23 25 25 25 25 25 23 16 325 236 226 223 222 226 228 226 221 216 212 209 206 205 203 202 201 200 199 200 201 201 200 199 198 198 198 199 198
231 260 287 320 348 1 9 11 9 8 10 10 10 11 13 13 13 14 14 15 17 19 21 23 23 22 23 25 24 21 21 24 26 26 25 25 25 27 31 34 36 38 35 28 24 23 23 22 23 26 27 27 27 28 29 32 34 62 199 207 210 211 214 216 216 215 213 210 208 206 205 203 202 201 200 201 203 203 202 202 201 201 202 201 199
216 238 265 311 351 5 10 10 7 7 9 8 8 11 12 11 12 14 13 14 17 18 20 22 24 23 24 25 24 23 25 27 27 27 27 27 26 27 30 33 36 39 37 32 27 25 24 24 24 26 27 29 30 29 30 31 33 42 89 176 196 201 203 204 205 207 210 209 208 208 206 205 204 204 204 203 202 201 201 202 202 202 202 200 198
208 224 240 280 347 4 9 10 8 4 2 3 6 8 9 9 11 12 12 14 16 17 18 20 22 23 25 25 24 25 28 29 29 29 28 27 27 27 28 31 35 39 40 37 32 29 27 26 26 27 28 30 31 31 31 31 31 34 46 103 173 191 197 200 201 202 204 206 207 208 208 207 206 206 204 202 201 201 201 201 201 201 201 200 198
203 216 224 241 345 10 9 6 4 360 357 0 2 2 5 8 9 10 12 15 17 18 19 19 20 23 24 24 24 27 29 30 31 30 29 28 28 28 28 30 33 38 42 41 37 33 30 29 28 29 31 32 32 33 33 34 34 34 38 52 115 175 190 196 199 201 203 204 205 206 207 207 207 206 204 203 202 201 200 200 200 200 200 199 198
203 212 215 230 338 13 10 2 358 355 354 356 357 358 2 5 7 10 13 15 18 20 20 19 20 23 24 25 25 27 29 31 32 31 30 29 28 29 29 30 32 36 41 42 39 35 33 31 30 31 32 33 32 33 34 34 36 37 38 41 54 113 175 191 197 201 203 204 204 205 206 206 205 204 204 204 203 203 202 202 202 201 199 198 198
203 213 215 228 343 6 3 354 353 351 350 352 353 355 360 4 7 10 14 17 19 21 22 21 22 23 24 27 27 27 28 31 32 32 31 30 29 28 29 30 32 36 40 42 40 37 35 34 33 33 34 33 33 33 33 34 36 38 39 39 43 54 108 176 195 201 203 203 204 206 207 207 206 205 204 204 203 203 203 204 203 202 201 200 201
200 209 214 230 324 347 347 345 346 346 347 348 350 354 0 5 8 11 15 18 21 22 23 23 24 25 25 27 28 28 28 30 32 32 32 31 30 29 28 29 32 35 38 42 42 40 38 36 35 34 34 35 35 34 34 35 36 38 39 38 37 38 45 113 188 198 201 203 205 205 206 208 208 207 206 205 203 203 203 203 203 203 203 203 204
199 205 207 216 262 308 330 337 340 342 344 346 349 354 1 5 8 12 17 19 20 23 24 25 26 26 27 28 28 29 29 30 31 33 33 32 31 30 29 29 31 33 36 41 44 43 40 39 37 36 35 35 35 36 36 36 37 38 39 39 38 36 37 51 156 185 193 199 202 203 204 207 209 209 209 209 207 206 205 205 205 205 205 205 206
199 201 200 209 235 267 308 326 335 340 344 346 350 354 360 5 9 13 18 20 21 22 23 24 26 27 28 28 29 30 29 29 30 32 33 33 31 31 30 30 30 31 33 38 42 44 43 41 40 38 36 34 35 36 37 37 38 38 39 39 40 40 42 52 82 139 174 188 195 198 199 201 204 207 209 211 211 211 210 210 209 209 208 208 207
198 198 198 210 229 243 277 313 333 343 345 348 351 353 357 3 9 14 18 21 22 22 22 24 25 25 26 28 29 29 29 29 29 29 31 33 32 31 30 30 31 31 31 34 39 43 44 43 42 40 37 34 34 36 38 38 38 39 39 40 43 44 45 50 60 81 125 162 178 187 191 194 197 200 203 205 209 212 213 213 213 213 212 211 210
196 198 200 207 220 235 260 304 335 347 349 349 351 352 356 1 6 11 17 21 22 21 22 23 24 24 25 27 28 29 29 29 28 28 30 31 31 30 30 30 30 30 31 33 36 41 44 44 44 43 39 35 33 34 37 38 38 39 40 41 44 46 48 50 53 61 79 114 146 165 177 183 187 191 195 197 200 204 208 212 214 214 214 214 213